sat.trackr.live / text

‹ back to catalog

STARLINK-32780

NORAD 62746 · 2025-014M

PAYLOAD ACTIVE UNKNOWN

§ Identity

Operator
Country
US
Launch date
2025-01-21
Launch site
AFETR
Launch vehicle
Mass (kg)
RCS (m²)

Purposes: comms

External: N2YO · Heavens-Above · Gunter

§ Orbital elements

Epoch: 2026-09-21T00:03:17.819712Z

Period
94.27 min
Inclination
43.0034°
Eccentricity
0.0001508
Mean motion
15.27584869 rev/d
Perigee alt
482.0 km
Apogee alt
484.1 km
Semi-major
6,861.2 km
B*
4.0840e-4
RAAN
131.7340°
Arg perigee
275.5943°
Mean anomaly
84.4737°
Rev number
9,312

§ Raw data

STARLINK-327801 62746U 25014M   26264.00228958  .00010995  00000+0  40840-3 0  99932 62746  43.0034 131.7340 0001508 275.5943  84.4737 15.27584869 93122

JSON: /api/v1/satellites/62746 · /tle

For live sub-satellite position, see the globe view (requires WebGL).

§ Visibility from observer

Set your observer location to see the next 7 days of passes ≥ 10°. The values pass through the URL so the page stays shareable.

No JS? Fill the form by hand. The geolocation button needs JavaScript.